Time,TemperatureF,DewpointF,PressureIn,WindDirection,WindDirectionDegrees,WindSpeedMPH,WindSpeedGustMPH,Humidity,HourlyPrecipIn,Conditions,Clouds,dailyrainin,SoftwareType,DateUTC
2013-05-26 00:00:00,78.0,-99.9,30.05,SSE,152,21.0,24.0,-999,-99.99,,,-99.99,,2013-05-26 04:00:00,
2013-05-26 00:33:00,78.0,-99.9,30.05,SSE,152,21.0,24.0,-999,-99.99,,,-99.99,,2013-05-26 04:33:00,
2013-05-26 00:43:00,78.0,-99.9,30.05,SSE,152,21.0,24.0,-999,-99.99,,,-99.99,,2013-05-26 04:43:00,
2013-05-26 00:53:00,78.0,-99.9,30.05,SSE,152,21.0,24.0,-999,-99.99,,,-99.99,,2013-05-26 04:53:00,
2013-05-26 01:00:00,78.0,-99.9,30.06,SSE,150,20.0,22.0,-999,-99.99,,,-99.99,,2013-05-26 05:00:00,
2013-05-26 01:32:00,78.0,-99.9,30.06,SSE,150,20.0,22.0,-999,-99.99,,,-99.99,,2013-05-26 05:32:00,
2013-05-26 01:42:00,78.0,-99.9,30.06,SSE,150,20.0,22.0,-999,-99.99,,,-99.99,,2013-05-26 05:42:00,
2013-05-26 01:52:00,78.0,-99.9,30.06,SSE,150,20.0,22.0,-999,-99.99,,,-99.99,,2013-05-26 05:52:00,
2013-05-26 02:00:00,78.0,-99.9,30.06,SSE,148,20.0,24.0,-999,-99.99,,,-99.99,,2013-05-26 06:00:00,
2013-05-26 02:32:00,78.0,-99.9,30.06,SSE,148,20.0,24.0,-999,-99.99,,,-99.99,,2013-05-26 06:32:00,
2013-05-26 02:42:00,78.0,-99.9,30.06,SSE,148,20.0,24.0,-999,-99.99,,,-99.99,,2013-05-26 06:42:00,
2013-05-26 02:52:00,78.0,-99.9,30.06,SSE,148,20.0,24.0,-999,-99.99,,,-99.99,,2013-05-26 06:52:00,
2013-05-26 03:00:00,78.0,-99.9,30.06,SSE,148,16.0,18.0,-999,-99.99,,,-99.99,,2013-05-26 07:00:00,
2013-05-26 03:32:00,78.0,-99.9,30.06,SSE,148,16.0,18.0,-999,-99.99,,,-99.99,,2013-05-26 07:32:00,
2013-05-26 03:42:00,78.0,-99.9,30.06,SSE,148,16.0,18.0,-999,-99.99,,,-99.99,,2013-05-26 07:42:00,
2013-05-26 03:52:00,78.0,-99.9,30.06,SSE,148,16.0,18.0,-999,-99.99,,,-99.99,,2013-05-26 07:52:00,
2013-05-26 04:00:00,78.0,-99.9,30.05,SSE,151,17.0,20.0,-999,-99.99,,,-99.99,,2013-05-26 08:00:00,
2013-05-26 04:32:00,78.0,-99.9,30.05,SSE,151,17.0,20.0,-999,-99.99,,,-99.99,,2013-05-26 08:32:00,
2013-05-26 04:42:00,78.0,-99.9,30.05,SSE,151,17.0,20.0,-999,-99.99,,,-99.99,,2013-05-26 08:42:00,
2013-05-26 04:53:00,78.0,-99.9,30.05,SSE,151,17.0,20.0,-999,-99.99,,,-99.99,,2013-05-26 08:53:00,
2013-05-26 05:00:00,78.0,-99.9,30.04,SSE,157,13.0,17.0,-999,-99.99,,,-99.99,,2013-05-26 09:00:00,
2013-05-26 05:34:00,78.0,-99.9,30.04,SSE,157,13.0,17.0,-999,-99.99,,,-99.99,,2013-05-26 09:34:00,
2013-05-26 05:43:00,78.0,-99.9,30.04,SSE,157,13.0,17.0,-999,-99.99,,,-99.99,,2013-05-26 09:43:00,
2013-05-26 05:53:00,78.0,-99.9,30.04,SSE,157,13.0,17.0,-999,-99.99,,,-99.99,,2013-05-26 09:53:00,
2013-05-26 06:00:00,78.0,-99.9,30.04,SSE,160,15.0,17.0,-999,-99.99,,,-99.99,,2013-05-26 10:00:00,
2013-05-26 06:33:00,78.0,-99.9,30.04,SSE,160,15.0,17.0,-999,-99.99,,,-99.99,,2013-05-26 10:33:00,
2013-05-26 06:42:00,78.0,-99.9,30.04,SSE,160,15.0,17.0,-999,-99.99,,,-99.99,,2013-05-26 10:42:00,
2013-05-26 06:52:00,78.0,-99.9,30.04,SSE,160,15.0,17.0,-999,-99.99,,,-99.99,,2013-05-26 10:52:00,
2013-05-26 07:00:00,78.0,-99.9,30.04,SSE,161,13.0,16.0,-999,-99.99,,,-99.99,,2013-05-26 11:00:00,
2013-05-26 07:33:00,78.0,-99.9,30.04,SSE,161,13.0,16.0,-999,-99.99,,,-99.99,,2013-05-26 11:33:00,
2013-05-26 07:43:00,78.0,-99.9,30.04,SSE,161,13.0,16.0,-999,-99.99,,,-99.99,,2013-05-26 11:43:00,
2013-05-26 07:52:00,78.0,-99.9,30.04,SSE,161,13.0,16.0,-999,-99.99,,,-99.99,,2013-05-26 11:52:00,
2013-05-26 09:00:00,78.0,-99.9,30.06,SSE,160,13.0,15.0,-999,-99.99,,,-99.99,,2013-05-26 13:00:00,
2013-05-26 09:32:00,78.0,-99.9,30.06,SSE,160,13.0,15.0,-999,-99.99,,,-99.99,,2013-05-26 13:32:00,
2013-05-26 09:42:00,78.0,-99.9,30.06,SSE,160,13.0,15.0,-999,-99.99,,,-99.99,,2013-05-26 13:42:00,
2013-05-26 09:52:00,78.0,-99.9,30.06,SSE,160,13.0,15.0,-999,-99.99,,,-99.99,,2013-05-26 13:52:00,
2013-05-26 10:00:00,79.0,-99.9,30.08,SSE,158,11.0,14.0,-999,-99.99,,,-99.99,,2013-05-26 14:00:00,
2013-05-26 10:32:00,79.0,-99.9,30.08,SSE,158,11.0,14.0,-999,-99.99,,,-99.99,,2013-05-26 14:32:00,
2013-05-26 10:42:00,79.0,-99.9,30.08,SSE,158,11.0,14.0,-999,-99.99,,,-99.99,,2013-05-26 14:42:00,
2013-05-26 10:52:00,79.0,-99.9,30.08,SSE,158,11.0,14.0,-999,-99.99,,,-99.99,,2013-05-26 14:52:00,
2013-05-26 11:00:00,79.0,-99.9,30.09,SSE,163,13.0,15.0,-999,-99.99,,,-99.99,,2013-05-26 15:00:00,
2013-05-26 11:33:00,79.0,-99.9,30.09,SSE,163,13.0,15.0,-999,-99.99,,,-99.99,,2013-05-26 15:33:00,
2013-05-26 11:43:00,79.0,-99.9,30.09,SSE,163,13.0,15.0,-999,-99.99,,,-99.99,,2013-05-26 15:43:00,
2013-05-26 11:53:00,79.0,-99.9,30.09,SSE,163,13.0,15.0,-999,-99.99,,,-99.99,,2013-05-26 15:53:00,
2013-05-26 12:00:00,79.0,-99.9,30.10,SSE,160,11.0,15.0,-999,-99.99,,,-99.99,,2013-05-26 16:00:00,
2013-05-26 12:33:00,79.0,-99.9,30.10,SSE,160,11.0,15.0,-999,-99.99,,,-99.99,,2013-05-26 16:33:00,
2013-05-26 12:43:00,79.0,-99.9,30.10,SSE,160,11.0,15.0,-999,-99.99,,,-99.99,,2013-05-26 16:43:00,
2013-05-26 12:53:00,79.0,-99.9,30.10,SSE,160,11.0,15.0,-999,-99.99,,,-99.99,,2013-05-26 16:53:00,
2013-05-26 13:00:00,79.0,-99.9,30.09,SSE,163,-999.0,16.0,-999,-99.99,,,-99.99,,2013-05-26 17:00:00,
2013-05-26 13:32:00,79.0,-99.9,30.09,SSE,163,-999.0,16.0,-999,-99.99,,,-99.99,,2013-05-26 17:32:00,
2013-05-26 13:42:00,79.0,-99.9,30.09,SSE,163,-999.0,16.0,-999,-99.99,,,-99.99,,2013-05-26 17:42:00,
2013-05-26 13:52:00,79.0,-99.9,30.09,SSE,163,-999.0,16.0,-999,-99.99,,,-99.99,,2013-05-26 17:52:00,
2013-05-26 14:00:00,80.0,-99.9,30.09,SSE,165,-999.0,-999.0,-999,-99.99,,,-99.99,,2013-05-26 18:00:00,
2013-05-26 14:32:00,80.0,-99.9,30.09,SSE,165,-999.0,-999.0,-999,-99.99,,,-99.99,,2013-05-26 18:32:00,
2013-05-26 14:42:00,80.0,-99.9,30.09,SSE,165,-999.0,-999.0,-999,-99.99,,,-99.99,,2013-05-26 18:42:00,
2013-05-26 14:52:00,80.0,-99.9,30.09,SSE,165,-999.0,-999.0,-999,-99.99,,,-99.99,,2013-05-26 18:52:00,
2013-05-26 15:00:00,79.0,-99.9,30.06,SSE,149,-999.0,-999.0,-999,-99.99,,,-99.99,,2013-05-26 19:00:00,
2013-05-26 15:32:00,79.0,-99.9,30.06,SSE,149,-999.0,-999.0,-999,-99.99,,,-99.99,,2013-05-26 19:32:00,
2013-05-26 15:42:00,79.0,-99.9,30.06,SSE,149,-999.0,-999.0,-999,-99.99,,,-99.99,,2013-05-26 19:42:00,
2013-05-26 15:53:00,79.0,-99.9,30.06,SSE,149,-999.0,-999.0,-999,-99.99,,,-99.99,,2013-05-26 19:53:00,
2013-05-26 16:00:00,79.0,-99.9,30.06,SSE,161,-999.0,-999.0,-999,-99.99,,,-99.99,,2013-05-26 20:00:00,
2013-05-26 16:32:00,79.0,-99.9,30.06,SSE,161,-999.0,-999.0,-999,-99.99,,,-99.99,,2013-05-26 20:32:00,
2013-05-26 16:42:00,79.0,-99.9,30.06,SSE,161,-999.0,-999.0,-999,-99.99,,,-99.99,,2013-05-26 20:42:00,
2013-05-26 16:53:00,79.0,-99.9,30.06,SSE,161,-999.0,-999.0,-999,-99.99,,,-99.99,,2013-05-26 20:53:00,
2013-05-26 17:00:00,79.0,-99.9,30.04,SSE,162,-999.0,-999.0,-999,-99.99,,,-99.99,,2013-05-26 21:00:00,
2013-05-26 17:33:00,79.0,-99.9,30.04,SSE,162,-999.0,-999.0,-999,-99.99,,,-99.99,,2013-05-26 21:33:00,
2013-05-26 17:43:00,79.0,-99.9,30.04,SSE,162,-999.0,-999.0,-999,-99.99,,,-99.99,,2013-05-26 21:43:00,
2013-05-26 17:53:00,79.0,-99.9,30.04,SSE,162,-999.0,-999.0,-999,-99.99,,,-99.99,,2013-05-26 21:53:00,
2013-05-26 18:00:00,79.0,-99.9,30.02,SSE,153,-999.0,-999.0,-999,-99.99,,,-99.99,,2013-05-26 22:00:00,
2013-05-26 18:33:00,79.0,-99.9,30.02,SSE,153,-999.0,-999.0,-999,-99.99,,,-99.99,,2013-05-26 22:33:00,
2013-05-26 18:42:00,79.0,-99.9,30.02,SSE,153,-999.0,-999.0,-999,-99.99,,,-99.99,,2013-05-26 22:42:00,
2013-05-26 18:53:00,79.0,-99.9,30.02,SSE,153,-999.0,-999.0,-999,-99.99,,,-99.99,,2013-05-26 22:53:00,
2013-05-26 19:00:00,79.0,-99.9,30.01,SSE,151,-999.0,-999.0,-999,-99.99,,,-99.99,,2013-05-26 23:00:00,
2013-05-26 19:32:00,79.0,-99.9,30.01,SSE,151,-999.0,-999.0,-999,-99.99,,,-99.99,,2013-05-26 23:32:00,
2013-05-26 19:43:00,79.0,-99.9,30.01,SSE,151,-999.0,-999.0,-999,-99.99,,,-99.99,,2013-05-26 23:43:00,
2013-05-26 19:52:00,79.0,-99.9,30.01,SSE,151,-999.0,-999.0,-999,-99.99,,,-99.99,,2013-05-26 23:52:00,
2013-05-26 20:00:00,79.0,-99.9,29.99,SE,136,-999.0,-999.0,-999,-99.99,,,-99.99,,2013-05-27 00:00:00,
2013-05-26 20:32:00,79.0,-99.9,29.99,SE,136,-999.0,-999.0,-999,-99.99,,,-99.99,,2013-05-27 00:32:00,
2013-05-26 20:42:00,79.0,-99.9,29.99,SE,136,-999.0,-999.0,-999,-99.99,,,-99.99,,2013-05-27 00:42:00,
2013-05-26 20:52:00,79.0,-99.9,29.99,SE,136,-999.0,-999.0,-999,-99.99,,,-99.99,,2013-05-27 00:52:00,
2013-05-26 21:00:00,79.0,-99.9,30.00,SSE,150,-999.0,-999.0,-999,-99.99,,,-99.99,,2013-05-27 01:00:00,
2013-05-26 21:32:00,79.0,-99.9,30.00,SSE,150,-999.0,-999.0,-999,-99.99,,,-99.99,,2013-05-27 01:32:00,
2013-05-26 21:42:00,79.0,-99.9,30.00,SSE,150,-999.0,-999.0,-999,-99.99,,,-99.99,,2013-05-27 01:42:00,
2013-05-26 21:52:00,79.0,-99.9,30.00,SSE,150,-999.0,-999.0,-999,-99.99,,,-99.99,,2013-05-27 01:52:00,
2013-05-26 22:00:00,78.0,-99.9,30.01,SE,142,-999.0,-999.0,-999,-99.99,,,-99.99,,2013-05-27 02:00:00,
2013-05-26 22:32:00,78.0,-99.9,30.01,SE,142,-999.0,-999.0,-999,-99.99,,,-99.99,,2013-05-27 02:32:00,
2013-05-26 22:43:00,78.0,-99.9,30.01,SE,142,-999.0,-999.0,-999,-99.99,,,-99.99,,2013-05-27 02:43:00,
2013-05-26 22:52:00,78.0,-99.9,30.01,SE,142,-999.0,-999.0,-999,-99.99,,,-99.99,,2013-05-27 02:52:00,
2013-05-26 23:00:00,79.0,-99.9,30.03,SSE,154,-999.0,-999.0,-999,-99.99,,,-99.99,,2013-05-27 03:00:00,
2013-05-26 23:33:00,79.0,-99.9,30.03,SSE,154,-999.0,-999.0,-999,-99.99,,,-99.99,,2013-05-27 03:33:00,
2013-05-26 23:43:00,79.0,-99.9,30.03,SSE,154,-999.0,-999.0,-999,-99.99,,,-99.99,,2013-05-27 03:43:00,
2013-05-26 23:54:00,79.0,-99.9,30.03,SSE,154,-999.0,-999.0,-999,-99.99,,,-99.99,,2013-05-27 03:54:00,